Location: Le Rocchette
(44.3500°N, 7.8333°E)
Time: 02:35:48
(UTC+00:00)

NOSS 3-3 (A) - Pass Details

Date: 17 November 2019
Orbit: 848 x 1364 km, 63.4° (Epoch: 05 December)

Event Time Altitude Azimuth Distance (km) Brightness Sun altitude
Exits shadow 04:51:47 22° 251° (WSW) 1,920 5.0 -16.9°
Maximum altitude 04:55:35 49° 317° (NW) 1,238 4.2 -16.2°
Drops below altitude 10° 05:02:05 10° 31° (NNE) 2,891 6.7 -15.1°
Sets 05:05:01 0° 37° (NE) 3,933 7.5 -14.6°
